Showing default

ELARA 1, 64539

Orbit data source: Space-Track

ELARA 1, 64539 is a payload satellite owned by Gilmour Space (AU) in SSO that was launched on Mon, 23 Jun 2025 UTC via an FALCON 9 launch vehicle from the Air Force Western Test Range (AFWTR).

MMS-1 Satellite from Gilmour Space.

Loading next visibility...
Identifier
64539, 2025-135M
Orbit
SSO
Country
Flag of AUAU / AUS
Related business
Manufacturer
Gilmour Space
Mission
Operational Commercial Earth Obs Sci
Bus & Motor
ELARASAT, Unknown motor
Mass
100 kg wet, 100 kg dry
Launch date (UTC)
2025-06-23 (1 year ago)
Launch vehicle
FALCON 9
Launch site
Air Force Western Test Range (AFWTR)
Object type
Payload
Rocket body
Debris
Shape & HBR
Box, 0.3 m
Radar Cross Section
0.375 m², Medium (>0.1 m² and < 1m²)

Expand to show TLE details & history
Last TLE update: 7 hours ago

TLE from 7 hours ago
0 ELARA 1
1 64539U 25135M   26163.83412373  .00003983  00000-0  17321-3 0  9992
2 64539  97.4729 279.3814 0003469 166.3571 193.7760 15.22847371 54217
Epoch: 2026-06-12T20:01Z
TLE epoch observation values (Epoch: 2026-06-12T20:01:08.290Z)
Latitude
Longitude
77.93897°
Altitude
502.666 km
Speed
7.612 km/s
True Right ascension
18h 37m 31s
True Declination
0° 00' 00"
Sunlit
Object was in full shadow at epoch
Visualization orbit readout
Latitude
Unknown
Longitude
Unknown
Altitude
Unknown
Speed
Unknown
Apparent Right ascension
Unknown
Apparent Declination
Unknown
Sunlit
N/A
Visualization observer readout
Local Sidereal Time
13:46:17
Azimuth
Unknown
Elevation
Unknown
Doppler factor
Unknown
Orbital elements
Apogee altitude
496.606 km
Perigee altitude
491.838 km
Semi-major axis
6,872.359 km
Eccentricity
0.00035
Inclination
97.4729°
RAAN
279.3814°
Arg. of periapsis
166.3571°
True anomaly
193.76654°
Mean anomaly
193.776°
Eccentric anomaly
193.77127°
Mean motion
3.80964 °/min
Orbital period
94.5 mins
BSTAR
0.00017321
Loading maneuver chart data...
Computing Atmospheric mass density...
Loading historical data...
Loading historical data...
Loading historical data...
Loading historical data...
Loading historical data...
Loading historical data...
Loading historical data...

Documentation

Showing up to 5 results
|